Boerne Stage Field, TX

11:17 PM CST on December 09, 2019 (GMT -0600)
Boerne Stage Field

Weather History for K5C1 - November, 2019

Change the Weather History Date:

Tuesday, November 12, 2019

  Actual Average (WUND) Record (WUND)
Temperature  
Mean Temperature 34 °F -  
Max Temperature 39 °F - - (-1)
Min Temperature 28 °F - - (-1)
Degree Days  
Heating Degree Days 32    
Moisture  
Dew Point 19 °F    
Average Humidity 60    
Maximum Humidity 93    
Minimum Humidity 36    
Precipitation  
Precipitation 0.00 in - - ()
Sea Level Pressure  
Sea Level Pressure 30.46 in    
Wind  
Wind Speed 11 mph (North)    
Max Wind Speed 20 mph    
Max Gust Speed 28 mph    
Visibility 10 miles    
Events      
Averages and records for this station are not official NWS values.
T = Trace of Precipitation, MM = Missing Value Source: NWS Daily Summary

Daily Weather History Graph

Daily Weather History Graph

Search for Another Location

Airport or City:

Astronomy

Nov. 12, 2019 Rise Set
Actual Time 6:56 AM CST 5:40 PM CST
Civil Twilight 6:31 AM CST 6:05 PM CST
Nautical Twilight 6:02 AM CST 6:34 PM CST
Astronomical Twilight 5:34 AM CST 7:02 PM CST
Moon 6:06 PM CST (11/12) 6:53 AM CST (11/12)
Length of Visible Light 11h 34m
Length of Day
10h 43m
Full, 100% of the Moon is Illuminated
Nov 12
Full
Nov 19
Last Quarter
Nov 26
New
Dec 4
First Quarter
Dec 11
Full

Hourly Weather History & Observations

Time (CST) Temp. Windchill Dew Point Humidity Pressure Visibility Wind Dir Wind Speed Gust Speed Precip Events Conditions
12:15 AM 30.2 °F 18.9 °F 28.4 °F 93% 30.39 in 10.0 mi North 16.1 mph 23.0 mph N/A   Overcast
12:35 AM 30.2 °F 20.2 °F 28.4 °F 93% 30.40 in 10.0 mi North 12.7 mph 25.3 mph N/A   Overcast
12:55 AM 30.2 °F 20.2 °F 28.4 °F 93% 30.41 in 10.0 mi North 12.7 mph 21.9 mph N/A   Overcast
1:15 AM 30.2 °F 18.5 °F 26.6 °F 86% 30.43 in 10.0 mi North 17.3 mph 25.3 mph N/A   Overcast
1:35 AM 30.2 °F 18.9 °F 26.6 °F 86% 30.41 in 10.0 mi North 16.1 mph 26.5 mph N/A   Overcast
1:55 AM 30.2 °F 18.5 °F 26.6 °F 86% 30.42 in 10.0 mi North 17.3 mph 25.3 mph N/A   Overcast
2:15 AM 30.2 °F 18.5 °F 26.6 °F 86% 30.41 in 10.0 mi North 17.3 mph 27.6 mph N/A   Overcast
2:35 AM 30.2 °F 18.9 °F 24.8 °F 80% 30.42 in 10.0 mi North 16.1 mph 25.3 mph N/A   Overcast
2:55 AM 30.2 °F 19.8 °F 24.8 °F 80% 30.44 in 10.0 mi North 13.8 mph 25.3 mph N/A   Overcast
3:15 AM 30.2 °F 18.1 °F 23.0 °F 75% 30.44 in 10.0 mi North 18.4 mph 24.2 mph N/A   Overcast
3:35 AM 30.2 °F 21.3 °F 24.8 °F 80% 30.45 in 10.0 mi North 10.4 mph 20.7 mph N/A   Overcast
3:55 AM 30.2 °F 19.3 °F 23.0 °F 75% 30.46 in 10.0 mi North 15.0 mph 23.0 mph N/A   Overcast
4:15 AM 28.4 °F 18.0 °F 23.0 °F 80% 30.46 in 10.0 mi North 12.7 mph 20.7 mph N/A   Overcast
4:35 AM 28.4 °F 15.4 °F 21.2 °F 74% 30.45 in 10.0 mi North 19.6 mph 25.3 mph N/A   Overcast
4:55 AM 28.4 °F 15.8 °F 21.2 °F 74% 30.46 in 10.0 mi North 18.4 mph 24.2 mph N/A   Overcast
5:15 AM 28.4 °F 17.0 °F 21.2 °F 74% 30.47 in 10.0 mi North 15.0 mph 23.0 mph N/A   Overcast
5:35 AM 28.4 °F 17.5 °F 21.2 °F 74% 30.48 in 10.0 mi North 13.8 mph 24.2 mph N/A   Overcast
5:55 AM 28.4 °F 18.5 °F 19.4 °F 69% 30.49 in 10.0 mi North 11.5 mph 21.9 mph N/A   Overcast
6:15 AM 28.4 °F 19.1 °F 19.4 °F 69% 30.50 in 10.0 mi North 10.4 mph 21.9 mph N/A   Overcast
6:35 AM 28.4 °F 17.5 °F 19.4 °F 69% 30.51 in 10.0 mi North 13.8 mph 19.6 mph N/A   Overcast
6:55 AM 28.4 °F 18.0 °F 19.4 °F 69% 30.52 in 10.0 mi North 12.7 mph 17.3 mph N/A   Overcast
7:15 AM 28.4 °F 17.5 °F 19.4 °F 69% 30.52 in 10.0 mi North 13.8 mph 19.6 mph N/A   Overcast
7:35 AM 28.4 °F 17.5 °F 19.4 °F 69% 30.53 in 10.0 mi North 13.8 mph 18.4 mph N/A   Overcast
7:55 AM 28.4 °F 16.2 °F 17.6 °F 64% 30.53 in 10.0 mi North 17.3 mph 26.5 mph N/A   Overcast
8:15 AM 28.4 °F 16.6 °F 17.6 °F 64% 30.53 in 10.0 mi North 16.1 mph 26.5 mph N/A   Mostly Cloudy
8:35 AM 28.4 °F 16.6 °F 17.6 °F 64% 30.52 in 10.0 mi North 16.1 mph 26.5 mph N/A   Scattered Clouds
8:55 AM 28.4 °F 16.6 °F 17.6 °F 64% 30.54 in 10.0 mi North 16.1 mph 25.3 mph N/A   Clear
9:15 AM 28.4 °F 17.5 °F 17.6 °F 64% 30.55 in 10.0 mi North 13.8 mph 20.7 mph N/A   Clear
9:35 AM 28.4 °F 19.7 °F 17.6 °F 64% 30.56 in 10.0 mi North 9.2 mph 23.0 mph N/A   Clear
9:55 AM 28.4 °F 18.5 °F 15.8 °F 59% 30.57 in 10.0 mi North 11.5 mph 21.9 mph N/A   Clear
10:15 AM 30.2 °F 19.3 °F 15.8 °F 55% 30.58 in 10.0 mi North 15.0 mph 23.0 mph N/A   Clear
10:35 AM 30.2 °F 18.9 °F 14.0 °F 51% 30.57 in 10.0 mi North 16.1 mph 20.7 mph N/A   Clear
10:55 AM 30.2 °F 20.2 °F 15.8 °F 55% 30.56 in 10.0 mi North 12.7 mph 20.7 mph N/A   Clear
11:15 AM 32.0 °F 21.2 °F 14.0 °F 48% 30.56 in 10.0 mi North 16.1 mph 23.0 mph N/A   Clear
11:35 AM 32.0 °F 22.1 °F 14.0 °F 48% 30.56 in 10.0 mi North 13.8 mph 23.0 mph N/A   Clear
11:55 AM 32.0 °F 23.0 °F 15.8 °F 51% 30.56 in 10.0 mi North 11.5 mph 18.4 mph N/A   Clear
12:15 PM 33.8 °F 26.4 °F 14.0 °F 44% 30.55 in 10.0 mi North 9.2 mph - N/A   Clear
12:35 PM 33.8 °F 24.8 °F 15.8 °F 48% 30.54 in 10.0 mi North 12.7 mph 17.3 mph N/A   Clear
12:55 PM 33.8 °F 25.8 °F 14.0 °F 44% 30.53 in 10.0 mi North 10.4 mph - N/A   Clear
1:15 PM 33.8 °F - 15.8 °F 48% 30.51 in 10.0 mi Calm Calm - N/A   Clear
1:35 PM 33.8 °F 27.0 °F 14.0 °F 44% 30.50 in 10.0 mi North 8.1 mph 17.3 mph N/A   Clear
1:55 PM 35.6 °F 31.7 °F 17.6 °F 48% 30.48 in 10.0 mi North 4.6 mph - N/A   Clear
2:15 PM 37.4 °F 32.8 °F 15.8 °F 41% 30.48 in 10.0 mi North 5.8 mph - N/A   Clear
2:35 PM 37.4 °F 29.8 °F 14.0 °F 38% 30.47 in 10.0 mi North 11.5 mph 16.1 mph N/A   Clear
2:55 PM 37.4 °F - 15.8 °F 41% 30.46 in 10.0 mi Calm Calm - N/A   Clear
3:15 PM 37.4 °F - 14.0 °F 38% 30.45 in 10.0 mi Calm Calm - N/A   Clear
3:35 PM 37.4 °F 30.3 °F 14.0 °F 38% 30.45 in 10.0 mi North 10.4 mph - N/A   Clear
3:55 PM 39.2 °F 33.0 °F 17.6 °F 42% 30.43 in 10.0 mi North 9.2 mph 18.4 mph N/A   Clear
4:15 PM 39.2 °F - 14.0 °F 36% 30.43 in 10.0 mi Calm Calm - N/A   Clear
4:35 PM 39.2 °F 33.0 °F 14.0 °F 36% 30.42 in 10.0 mi NNE 9.2 mph 17.3 mph N/A   Clear
4:55 PM 39.2 °F - 14.0 °F 36% 30.43 in 10.0 mi Calm Calm - N/A   Clear
5:15 PM 37.4 °F - 15.8 °F 41% 30.43 in 10.0 mi Calm Calm - N/A   Clear
5:35 PM 35.6 °F - 17.6 °F 48% 30.42 in 10.0 mi Calm Calm - N/A   Clear
5:55 PM 35.6 °F - 17.6 °F 48% 30.42 in 10.0 mi Calm Calm - N/A   Clear
6:35 PM 33.8 °F - 17.6 °F 52% 30.42 in 10.0 mi Calm Calm - N/A   Clear
7:15 PM 32.0 °F - 19.4 °F 60% 30.42 in 10.0 mi Calm Calm - N/A   Clear
7:35 PM 32.0 °F - 19.4 °F 60% 30.41 in 10.0 mi Calm Calm - N/A   Clear
7:55 PM 32.0 °F - 19.4 °F 60% 30.40 in 10.0 mi Calm Calm - N/A   Clear
8:15 PM 32.0 °F - 19.4 °F 60% 30.40 in 10.0 mi Calm Calm - N/A   Clear
8:35 PM 32.0 °F - 19.4 °F 60% 30.40 in 10.0 mi Calm Calm - N/A   Clear
8:55 PM 32.0 °F - 19.4 °F 60% 30.40 in 10.0 mi Calm Calm - N/A   Clear
9:15 PM 32.0 °F - 17.6 °F 55% 30.40 in 10.0 mi Calm Calm - N/A   Clear
9:35 PM 32.0 °F - 17.6 °F 55% 30.40 in 10.0 mi Calm Calm - N/A   Clear
9:55 PM 32.0 °F - 17.6 °F 55% 30.39 in 10.0 mi Calm Calm - N/A   Clear
10:15 PM 32.0 °F - 17.6 °F 55% 30.39 in 10.0 mi Calm Calm - N/A   Clear
10:35 PM 32.0 °F - 17.6 °F 55% 30.39 in 10.0 mi Calm Calm - N/A   Clear
10:55 PM 32.0 °F - 17.6 °F 55% 30.39 in 10.0 mi Calm Calm - N/A   Clear
11:15 PM 32.0 °F - 17.6 °F 55% 30.40 in 10.0 mi Calm Calm - N/A   Clear
11:35 PM 32.0 °F - 17.6 °F 55% 30.40 in 10.0 mi Calm Calm - N/A   Clear
11:55 PM 32.0 °F - 17.6 °F 55% 30.40 in 10.0 mi Calm Calm - N/A   Clear